Theta_e
326 326 327 326 326 324 322 321 319 317 316 315 313 312 312 312 310 310 312 310 309 311 311 308 308 306 306 307 307 306 306 307 307 307 308 308 308 308 309 309 308 307 307 307 307 307 306 305 305 305 305 305 304 305 305 304 302 302 303 302 301 301 301 301 300 300 299 299 299 298 298 298 298 297
321 322 322 323 325 324 323 322 318 314 313 314 312 311 310 310 310 311 313 312 310 310 310 308 307 308 307 307 307 307 306 307 307 307 307 308 308 308 308 308 308 307 307 306 306 306 306 305 305 305 305 304 304 305 304 304 302 302 302 303 303 302 302 302 302 301 300 300 299 299 298 298 297 297
316 316 316 317 320 322 322 323 319 312 311 312 311 311 311 310 310 310 311 311 310 309 309 308 307 308 309 308 307 307 307 307 307 306 306 307 307 307 308 308 308 308 307 307 306 306 306 305 305 305 305 304 304 304 303 303 302 302 302 303 303 302 302 302 302 302 301 300 299 299 298 297 297 297
314 315 315 315 316 318 319 322 322 315 311 312 312 312 312 310 310 309 308 309 309 308 308 308 308 308 309 309 308 308 307 307 307 306 306 306 306 307 307 308 308 308 307 307 306 305 305 305 305 305 305 304 304 303 302 302 302 302 302 303 303 303 302 302 302 302 301 300 299 299 298 298 297 297
315 315 315 315 315 316 316 319 322 319 313 312 312 313 313 311 309 308 307 307 308 308 308 308 308 307 307 308 308 308 308 308 308 308 307 307 306 306 307 308 308 308 307 307 306 305 305 305 305 305 305 304 303 302 302 302 302 302 303 303 303 303 302 302 302 302 301 300 299 299 298 298 298 297
315 315 315 315 315 316 316 317 321 320 315 313 313 313 313 312 309 307 307 308 308 308 308 308 307 307 307 307 307 308 308 308 309 309 309 308 308 307 306 307 308 308 307 306 305 305 305 305 305 305 304 303 302 301 302 302 302 302 302 302 303 303 302 302 302 302 301 300 299 299 299 298 298 297
314 315 315 315 315 316 317 317 319 320 318 315 314 313 313 311 309 307 307 308 308 308 308 307 307 307 307 307 307 308 308 308 308 309 309 309 309 307 306 307 308 308 307 306 305 305 305 305 305 304 302 302 301 301 301 302 302 302 302 302 302 302 302 302 301 302 301 300 299 299 298 298 298 297
313 315 315 315 315 315 316 316 316 316 316 315 315 314 314 312 310 308 307 308 309 309 308 308 308 308 308 308 308 307 307 307 307 307 308 309 309 308 307 308 308 307 307 306 305 305 305 305 303 302 301 301 301 301 301 302 302 302 301 301 301 301 302 302 301 301 301 300 299 298 298 298 297 297
314 314 315 315 314 314 314 315 315 315 315 315 314 314 314 313 311 308 308 309 310 310 309 309 309 308 308 308 308 308 308 308 307 307 308 309 309 308 308 308 307 307 307 306 306 305 305 303 302 301 301 301 300 301 301 302 302 302 302 301 301 301 301 301 301 301 301 300 300 299 298 298 297 297
315 314 314 314 314 314 314 314 314 314 314 314 314 313 312 311 310 309 310 311 311 311 311 310 309 308 308 308 308 308 309 309 308 307 309 309 309 309 308 308 307 306 306 305 305 305 303 302 301 300 300 300 300 301 301 301 302 302 301 301 301 301 301 301 300 300 300 300 299 299 299 298 298 297
314 314 314 314 314 314 314 314 314 314 314 314 314 314 312 312 311 312 313 313 312 311 312 311 310 308 308 308 308 309 310 310 308 308 309 309 309 309 308 307 306 306 306 305 304 303 301 301 300 300 300 300 300 301 301 301 301 301 301 300 300 300 300 300 300 300 300 300 299 299 299 298 298 298
314 314 314 314 314 314 314 314 314 314 314 314 314 314 314 314 314 314 314 314 313 313 312 312 311 310 309 309 309 309 310 310 309 308 309 309 309 308 307 306 306 306 305 304 302 301 300 300 300 300 300 300 300 300 300 300 300 300 300 300 299 299 299 299 299 299 299 299 299 299 299 298 298 298
315 314 314 314 313 314 314 314 314 314 315 315 314 314 314 314 314 314 315 314 314 314 313 312 312 311 311 311 311 310 310 311 310 309 309 309 308 307 307 306 306 305 304 302 301 300 300 299 299 300 299 299 299 299 299 299 299 298 298 298 298 298 298 299 299 299 299 299 299 298 298 298 298 298
314 314 313 313 312 313 314 315 315 315 315 315 315 315 315 314 314 314 314 314 314 314 313 313 313 312 312 312 312 312 311 311 311 310 309 309 308 306 306 305 305 304 302 301 300 299 299 299 299 299 299 298 298 298 298 297 297 297 297 297 297 297 297 297 298 298 298 298 297 297 297 297 297 297
314 314 313 313 313 313 314 315 316 316 316 316 316 316 315 315 315 315 314 314 314 314 313 313 313 313 313 313 313 313 313 312 311 310 309 309 307 306 306 305 303 302 301 300 299 299 299 299 299 299 298 297 297 297 297 296 296 296 296 296 296 296 296 296 296 297 296 296 296 296 296 296 296 297
314 314 314 313 314 315 316 316 317 317 317 317 317 316 316 316 316 316 316 315 315 315 314 314 313 313 313 313 313 313 313 312 310 309 309 308 307 306 305 302 300 300 300 300 299 298 299 299 299 298 297 297 296 296 296 296 296 296 295 295 295 295 295 295 295 295 295 295 295 296 296 296 296 296
313 314 314 313 314 315 316 317 317 317 318 317 317 317 317 317 317 317 317 316 316 316 316 315 315 314 314 314 313 313 312 311 310 308 307 306 305 304 303 300 299 299 299 299 298 298 298 298 298 297 297 296 296 296 296 295 295 295 295 295 295 294 294 294 294 294 294 294 295 295 295 295 295 295
313 314 314 314 314 315 316 317 317 317 317 318 318 318 317 317 317 317 316 316 316 316 316 316 316 316 315 314 314 313 311 310 309 308 306 305 304 302 301 299 298 298 298 298 297 298 298 297 297 296 296 296 295 295 295 295 295 295 295 294 294 293 293 293 293 293 293 293 294 294 294 294 294 294
313 314 315 315 314 315 316 317 317 317 318 318 318 317 317 317 316 315 315 315 315 315 315 315 315 315 315 314 314 312 310 308 308 306 305 304 302 301 299 298 298 298 298 297 297 297 297 297 296 296 296 296 296 295 295 295 295 295 294 293 293 293 293 293 293 293 293 293 293 293 293 293 293 294
314 315 316 316 316 316 316 317 317 317 318 318 318 317 317 315 315 314 314 314 314 314 313 312 312 313 314 313 312 310 308 307 306 304 303 302 301 300 298 298 298 298 297 297 297 297 296 296 296 296 296 295 295 295 295 295 295 294 293 293 293 293 293 293 293 293 293 293 293 293 293 293 293 293
315 316 316 316 316 316 317 317 317 318 318 318 317 316 315 314 314 314 314 314 314 313 312 311 311 311 311 311 309 307 306 305 303 303 302 300 299 299 298 298 298 297 297 297 296 296 296 295 295 295 295 295 295 294 294 294 294 293 293 293 293 293 293 293 293 293 293 293 293 293 293 293 293 293
316 316 316 317 317 317 317 317 318 318 318 317 316 315 314 314 314 314 314 314 313 312 311 310 309 309 308 307 306 305 303 302 301 301 301 300 299 299 298 298 298 296 296 296 296 295 295 295 294 294 294 294 294 294 294 294 293 293 293 293 293 293 293 293 293 293 293 293 293 293 293 293 293 293
317 317 317 317 317 318 318 318 319 319 318 315 314 314 313 313 313 313 313 313 311 311 310 308 308 307 306 304 303 302 301 301 300 300 300 300 299 299 299 299 298 297 295 295 295 295 294 294 294 294 293 293 293 294 293 293 293 293 293 293 293 293 293 293 293 293 293 293 293 293 293 293 293 293
318 318 318 318 318 318 319 319 319 319 317 314 313 313 313 313 313 313 312 311 310 310 309 307 306 305 303 302 301 301 300 301 301 301 301 300 300 299 299 298 297 297 295 294 294 294 294 294 293 293 293 292 293 293 293 293 293 293 293 293 293 293 293 293 293 293 293 293 293 293 293 293 293 292
317 318 318 318 318 319 319 319 319 318 317 316 314 314 314 314 313 313 313 311 309 308 308 306 304 303 302 301 301 301 301 301 301 301 300 299 298 298 297 297 296 296 295 294 294 294 294 293 293 293 292 292 292 292 292 292 292 293 292 292 292 293 293 293 293 293 293 293 293 293 293 293 293 292
314 316 317 318 318 318 318 319 319 318 317 317 315 314 314 315 314 313 312 310 308 307 305 304 303 302 302 302 302 301 301 301 300 299 298 297 297 296 296 296 296 295 294 294 293 293 293 293 292 292 292 292 292 292 292 292 292 292 292 292 292 292 292 292 293 293 293 293 293 293 293 293 293 292
311 312 314 316 317 317 317 317 318 318 318 317 316 315 315 315 314 312 310 308 306 305 303 303 303 303 302 302 301 300 300 299 298 297 297 296 296 296 296 295 295 294 294 293 293 293 292 292 292 292 292 291 291 291 291 292 292 292 292 292 292 292 292 293 293 293 293 293 293 293 292 292 292 292
311 311 312 314 315 316 316 316 316 316 316 316 315 314 314 314 313 311 309 307 304 303 303 303 303 302 301 300 300 299 298 297 297 296 295 295 295 295 295 294 293 293 293 292 292 292 292 292 292 291 291 291 291 291 291 291 291 292 292 292 292 292 292 292 292 292 292 292 292 292 292 292 292 292
310 312 312 313 313 314 315 315 315 315 315 314 314 314 314 313 312 310 308 305 303 302 303 302 301 300 299 299 298 298 297 296 295 295 295 294 294 294 293 293 292 292 292 292 291 291 291 291 291 290 290 290 290 291 291 291 291 291 291 292 292 292 292 292 292 292 292 292 292 292 292 292 292 291
307 310 311 311 312 313 314 315 315 314 314 313 313 313 313 312 311 311 308 304 302 302 302 301 300 299 298 298 297 296 295 295 295 294 294 294 293 293 292 292 291 291 291 291 291 291 290 290 290 290 290 290 290 290 291 291 291 291 291 292 292 292 292 292 292 292 292 292 292 292 292 292 292 292
304 307 309 310 310 311 312 312 313 312 311 311 310 310 310 310 311 310 308 304 302 302 301 299 299 298 297 296 296 295 295 294 294 294 293 293 292 292 292 291 291 290 290 290 290 290 289 289 289 290 290 290 290 290 291 291 291 291 291 291 291 291 291 291 291 292 292 292 292 292 292 292 292 292
303 305 307 308 308 309 309 310 309 308 308 308 308 307 307 307 306 306 304 302 302 301 300 298 298 297 296 295 295 294 294 294 293 293 292 292 292 291 291 291 290 290 290 290 289 289 289 289 290 290 290 290 290 290 291 291 291 291 291 291 291 291 291 291 292 292 292 292 292 292 292 292 292 291
303 304 306 306 306 306 306 306 305 304 304 304 304 305 305 304 302 301 301 300 300 299 298 297 297 296 295 294 294 294 293 293 292 292 292 291 291 291 290 290 290 290 290 289 289 289 289 290 290 290 290 291 291 291 291 291 291 291 291 291 291 291 291 292 292 292 292 292 292 292 292 292 291 290
302 303 304 304 305 305 304 304 303 303 303 302 302 302 302 302 301 299 299 299 299 298 297 297 296 295 294 294 293 293 293 292 292 291 291 291 291 290 290 290 290 289 289 288 288 289 290 290 291 291 291 291 291 291 291 291 291 291 291 291 291 291 291 292 292 292 292 292 291 291 291 291 290 290
302 303 303 303 303 303 303 303 303 303 302 302 301 301 301 301 300 300 299 299 298 297 296 296 295 294 294 293 293 293 292 292 291 291 291 291 290 290 290 289 289 289 288 289 289 290 290 291 291 291 291 290 290 290 291 291 291 290 290 291 291 291 291 291 292 292 292 292 291 291 290 289 290 290
301 302 302 302 302 302 301 301 302 303 302 301 300 300 300 299 299 299 299 298 297 296 296 295 294 294 293 293 293 292 292 292 291 291 291 291 290 290 289 289 289 289 289 289 290 291 290 291 291 290 290 290 290 290 290 290 290 290 290 291 291 291 291 291 292 292 292 292 291 290 289 288 289 290
301 302 302 302 302 301 300 299 299 300 300 299 298 298 298 298 298 298 297 296 296 295 295 294 294 293 293 293 292 292 292 291 291 291 291 291 290 290 289 289 289 289 289 290 290 291 290 291 291 290 290 290 290 290 290 290 291 291 290 290 291 291 291 291 291 291 291 291 291 290 289 288 289 289
301 301 301 301 301 300 299 298 297 297 298 298 298 297 297 297 297 296 296 295 295 294 294 294 293 293 292 292 292 292 291 291 291 291 291 290 289 289 289 289 289 290 290 290 290 290 290 291 290 290 290 290 290 290 290 290 291 291 291 290 291 291 291 291 290 291 291 291 290 289 289 289 289 288
300 300 300 300 299 299 298 297 297 297 297 298 298 297 296 296 295 295 295 294 294 293 293 293 293 292 292 292 292 292 291 291 291 291 290 289 289 289 290 289 289 290 290 290 290 291 291 290 290 290 290 290 290 290 290 290 290 291 291 291 291 291 291 291 290 291 290 290 289 289 289 289 289 288
299 300 300 299 298 297 297 296 296 296 296 296 296 295 295 295 294 294 294 293 293 293 293 293 293 292 292 292 292 292 291 291 291 290 290 289 289 290 290 290 289 290 290 290 290 291 291 291 290 290 290 290 290 290 290 290 290 291 291 291 291 291 291 291 291 290 290 289 289 289 289 288 288 288
299 299 299 298 298 297 296 295 295 294 294 294 294 294 295 295 294 294 294 293 293 293 293 293 293 292 292 292 292 291 291 290 290 289 289 289 289 289 290 290 290 290 290 290 290 291 291 291 291 291 291 291 291 291 290 290 290 291 291 292 292 292 291 291 290 290 289 289 289 288 288 288 287 287
298 298 298 298 297 297 296 295 294 294 294 295 295 295 295 294 294 294 294 293 293 293 292 292 292 292 292 292 291 291 290 290 289 289 289 289 289 289 289 289 289 290 290 290 291 291 291 291 291 291 291 291 291 290 290 290 290 291 292 292 292 291 291 291 290 289 289 289 288 288 288 287 286 286
296 296 297 297 296 295 295 295 295 295 295 295 296 295 294 294 293 293 293 293 293 292 292 292 292 292 291 291 290 290 290 289 289 289 289 289 289 289 289 290 290 290 290 290 291 291 290 290 291 292 292 291 291 290 290 290 290 291 292 292 292 292 291 291 290 289 289 289 288 288 288 288 286 286
296 295 295 295 295 295 294 294 294 294 295 295 294 294 293 293 293 293 293 292 292 292 292 292 292 291 291 290 290 289 289 289 289 289 289 289 289 289 289 289 289 289 290 290 291 291 290 291 292 292 291 291 291 291 291 291 291 291 292 292 292 292 291 291 290 289 289 289 289 289 289 288 287 286
295 294 294 294 294 294 294 293 293 293 294 293 293 293 293 293 292 292 292 292 292 292 292 292 291 291 290 290 289 289 289 289 289 289 289 289 289 289 290 290 289 289 289 290 291 291 291 291 292 291 291 291 291 291 291 291 291 291 292 292 292 292 291 291 290 289 289 289 289 289 289 289 287 286
Wind_Speed
11 14 14 15 16 15 17 21 19 21 26 27 26 25 24 20 11 3 3 5 7 10 10 7 7 9 9 10 11 11 11 12 12 11 11 11 11 11 11 11 12 12 11 12 12 13 14 15 16 17 17 18 19 21 24 25 23 19 17 16 16 15 17 17 18 18 18 18 18 18 17 16 14 13
12 13 15 16 19 18 19 19 18 22 27 27 26 22 21 22 17 10 7 5 9 14 12 9 9 11 11 11 11 11 11 11 10 9 9 9 8 8 8 8 9 9 9 9 9 10 11 12 13 14 14 15 16 19 22 24 23 18 15 14 15 15 15 17 18 19 19 20 20 20 20 18 16 14
13 13 14 17 20 21 22 22 19 23 27 25 25 23 21 21 18 16 13 5 8 16 14 11 12 12 12 11 11 11 10 10 9 8 7 5 5 5 5 5 5 6 6 6 6 7 8 9 10 11 11 12 14 17 20 22 20 16 12 12 13 13 14 16 17 19 20 22 23 23 22 21 18 16
14 13 12 13 17 20 23 25 23 24 26 24 24 24 23 21 17 17 16 9 9 17 15 11 12 13 12 11 10 11 10 10 9 7 6 5 4 3 3 3 2 3 4 4 4 5 5 6 7 8 9 12 15 17 18 18 16 13 10 9 10 10 12 14 16 17 19 22 23 24 23 23 21 19
14 13 12 11 13 17 21 25 25 25 25 24 24 24 23 23 20 17 17 12 10 15 16 13 12 14 14 12 10 10 9 9 8 7 7 6 5 4 2 1 1 1 2 2 3 2 2 2 4 6 10 14 16 16 16 14 13 11 10 8 8 8 9 11 13 15 17 20 22 23 23 23 23 23
15 15 14 13 13 15 19 23 25 25 25 24 25 26 25 25 23 19 17 14 12 15 17 15 14 15 15 14 12 11 9 8 6 5 5 5 6 6 4 3 2 1 1 2 1 1 0 1 2 7 11 14 14 13 12 11 10 10 9 8 7 7 8 9 11 12 14 17 19 19 20 21 22 23
14 16 17 17 16 16 17 19 21 22 23 23 24 26 27 27 26 22 19 15 14 17 18 16 16 16 15 15 13 11 10 9 8 6 5 5 6 7 6 4 4 3 2 2 2 1 2 2 5 8 10 11 11 11 10 9 8 8 8 8 7 7 7 8 10 11 12 14 15 16 17 18 19 20
15 16 18 18 18 18 18 18 19 18 18 18 19 22 25 28 26 23 20 16 14 17 18 17 17 16 15 14 12 12 12 12 12 10 7 6 7 8 8 7 6 4 4 4 3 3 3 5 7 8 8 9 10 9 9 8 6 6 7 7 7 6 6 7 9 9 10 12 13 15 15 15 16 17
15 16 17 17 16 17 18 18 17 17 15 14 14 16 19 23 24 22 20 16 15 17 18 19 18 17 15 13 12 13 13 13 13 11 8 7 8 9 10 9 6 5 5 4 3 3 5 7 6 6 7 8 8 8 8 7 7 7 8 7 6 5 5 6 7 8 9 11 12 14 14 13 13 13
13 15 15 15 15 15 16 16 16 16 15 13 13 14 15 18 21 20 18 16 16 17 18 18 18 18 17 15 14 13 13 12 13 11 9 9 10 11 11 9 7 6 6 3 1 5 7 6 5 7 8 9 9 9 9 8 8 9 9 9 7 6 5 5 5 6 8 10 11 12 13 13 12 12
12 13 13 13 13 13 14 14 14 14 14 14 14 14 15 17 19 18 16 16 16 16 16 17 17 18 18 17 16 14 11 10 11 13 13 12 12 11 10 9 8 7 4 0 4 6 5 4 6 7 8 8 7 7 7 8 8 9 9 9 9 8 8 8 7 7 9 10 11 13 14 14 14 13
13 13 12 12 12 12 12 12 13 13 14 15 15 15 15 15 16 16 15 16 16 16 16 16 17 17 17 17 16 14 12 11 12 15 16 15 15 13 10 9 9 6 2 2 5 5 4 5 6 6 6 6 6 6 7 8 9 10 10 11 12 13 13 13 12 12 13 14 14 15 15 14 14 14
16 16 15 14 14 13 13 12 12 12 13 15 16 16 16 15 15 15 15 15 15 16 16 16 16 17 17 17 16 15 15 14 14 16 17 16 15 13 10 9 7 4 2 4 6 6 7 7 6 5 5 6 7 8 9 10 12 13 13 14 14 15 15 15 15 15 15 15 15 15 14 14 14 14
19 19 18 17 17 16 16 15 14 14 13 14 14 15 16 17 17 16 16 15 15 15 16 16 16 17 18 18 17 17 16 16 15 16 18 17 15 12 9 7 5 3 4 6 7 7 6 6 5 5 6 7 8 10 11 12 13 14 15 15 15 15 14 14 13 13 13 12 12 13 13 14 14 15
21 20 20 18 17 17 17 17 16 16 15 15 14 14 15 16 17 16 16 16 15 16 16 16 16 17 18 18 16 16 16 15 14 16 18 17 15 12 9 6 4 3 5 6 6 5 3 2 4 5 7 8 9 11 12 12 14 15 16 16 15 15 14 14 13 13 12 12 12 13 14 15 16 17
23 22 22 20 19 18 18 18 18 17 17 17 16 15 15 15 15 16 16 16 16 16 16 17 17 18 18 17 16 16 16 15 15 15 15 15 13 10 7 6 4 2 4 6 5 3 0 1 3 5 7 9 10 11 12 13 15 16 16 16 17 17 18 18 17 16 15 15 15 15 16 17 18 18
24 24 24 24 23 22 21 21 20 20 19 18 17 17 17 16 16 16 17 17 17 17 18 19 20 20 19 18 17 16 16 16 17 16 14 12 10 7 5 4 3 1 3 4 3 1 2 2 3 4 6 8 10 11 12 14 15 15 15 17 19 20 19 18 17 16 15 15 15 15 16 16 16 17
26 25 26 27 27 26 25 25 25 24 23 22 21 20 20 20 19 18 19 19 19 19 19 20 21 21 21 20 18 16 16 17 17 16 14 10 7 5 4 3 2 1 0 1 1 2 3 3 4 5 7 9 11 12 13 14 14 14 17 19 18 17 15 14 14 14 13 13 13 14 13 13 13 14
30 28 27 28 29 29 28 28 28 27 27 25 24 24 24 23 22 21 21 21 20 20 20 21 21 21 20 20 18 17 17 16 14 13 10 8 7 6 5 5 4 3 1 1 0 3 4 4 6 7 9 11 13 14 14 13 12 14 18 18 15 13 12 12 13 13 12 12 12 11 10 10 12 12
32 32 31 31 31 32 31 31 31 31 30 29 28 28 26 24 22 21 21 20 20 20 19 18 18 18 18 18 17 18 17 15 12 10 9 8 8 8 8 7 5 3 1 1 0 1 3 4 7 9 12 13 14 13 12 11 12 16 18 16 13 13 13 13 13 13 12 11 10 9 9 11 12 13
34 35 35 35 35 35 35 35 35 34 33 32 30 27 22 20 20 20 21 21 20 19 17 15 13 12 13 15 16 17 15 12 10 9 9 10 10 9 9 7 5 4 3 2 1 2 3 5 7 10 13 14 14 13 10 10 13 16 16 14 13 14 14 14 13 12 11 10 9 10 11 13 14 14
32 34 35 35 36 37 38 37 37 37 37 35 32 27 21 20 23 23 22 22 20 17 14 12 11 13 15 16 16 14 11 9 8 8 8 10 10 9 8 6 6 5 4 2 3 4 4 5 8 12 14 14 14 12 10 12 16 16 14 13 14 14 15 14 13 12 11 10 10 11 12 14 15 16
27 29 31 33 35 37 38 38 37 39 36 30 26 24 23 24 27 27 24 22 20 16 14 14 15 17 17 15 13 12 10 10 9 7 7 9 9 8 7 7 6 5 4 2 4 6 5 6 9 12 12 10 10 11 13 17 18 15 13 14 15 15 16 15 13 12 10 10 11 12 13 14 16 17
28 28 28 30 32 35 37 37 38 37 31 23 21 23 25 27 28 28 25 22 18 16 17 18 18 18 16 14 13 13 12 11 10 8 8 8 7 7 7 7 5 4 4 2 4 6 5 6 9 10 8 6 7 12 17 19 18 14 12 14 16 17 16 15 13 11 10 10 12 13 13 14 16 17
29 30 30 30 31 33 34 36 38 36 31 28 27 26 26 27 28 27 26 23 19 18 20 21 19 18 17 15 14 13 13 12 11 10 9 8 7 6 6 6 5 4 3 2 4 6 6 7 8 9 8 7 9 13 17 18 17 14 13 15 17 17 16 15 13 11 10 11 12 12 13 14 16 17
26 28 30 31 31 32 33 34 36 36 34 33 28 23 22 25 27 27 25 23 21 21 22 22 20 19 17 16 15 14 13 13 12 11 10 9 7 6 4 3 2 2 2 2 4 6 7 7 7 7 7 8 10 12 14 17 17 16 15 16 17 17 15 13 12 11 11 12 12 13 14 15 17 18
24 25 27 28 30 32 33 33 34 35 35 33 27 22 22 25 26 24 24 24 25 25 25 23 22 20 19 18 17 16 15 15 13 12 10 9 7 4 2 1 1 1 0 2 5 7 7 5 5 6 7 8 10 11 12 15 17 17 18 19 18 16 14 12 12 13 13 13 14 15 16 17 18 19
21 22 24 25 26 30 32 33 33 35 36 35 30 25 25 26 25 24 25 27 28 28 27 25 24 22 21 20 19 18 16 15 14 12 10 8 5 3 2 2 2 2 2 3 4 5 4 4 4 6 8 9 10 10 11 15 18 18 19 21 20 16 12 12 14 16 16 17 17 18 19 20 19 19
19 20 21 22 24 26 28 29 31 33 34 34 32 28 27 27 26 26 27 29 29 28 27 25 24 23 21 20 19 18 17 16 15 13 10 8 5 3 3 3 3 3 3 3 3 3 4 5 6 8 9 9 10 11 13 16 18 18 17 19 19 15 12 13 16 18 19 20 20 19 18 18 18 17
19 18 18 20 23 25 25 26 28 30 31 30 29 28 28 29 30 30 30 32 32 29 27 26 24 23 22 20 19 18 18 16 13 10 8 7 5 4 3 3 4 4 4 3 2 3 5 7 8 9 10 10 11 12 13 14 17 18 16 15 16 16 14 16 18 18 18 18 18 18 17 16 16 15
20 17 16 18 21 23 23 23 24 26 28 27 26 26 27 30 33 33 34 37 36 32 29 28 27 25 24 22 21 19 17 14 10 7 6 6 6 4 3 4 5 5 4 4 4 6 6 7 7 8 9 10 11 12 11 11 15 17 14 12 14 16 17 18 17 15 15 17 18 17 17 17 17 16
21 18 15 16 18 20 20 20 21 23 24 23 24 26 26 27 28 31 33 35 33 31 29 29 28 27 25 23 22 19 15 12 10 8 5 5 6 5 4 6 6 5 5 6 8 7 5 5 7 7 8 9 10 11 11 10 11 12 12 13 14 16 16 16 15 14 14 16 18 19 19 19 20 19
19 16 15 14 16 17 17 18 19 20 20 20 21 24 25 23 22 24 27 28 26 27 28 28 28 27 26 24 21 17 14 12 10 8 6 6 6 6 6 7 6 6 7 9 9 7 5 6 8 7 7 8 8 9 9 9 8 9 12 15 16 16 15 13 13 14 16 17 20 22 23 23 23 22
16 16 15 15 16 17 18 19 19 19 19 19 19 21 23 23 21 22 23 23 24 25 26 27 27 26 25 23 19 16 14 13 11 8 6 7 7 8 8 7 6 6 7 8 8 8 8 8 8 7 7 9 9 7 5 6 8 11 13 15 16 15 14 13 13 14 16 17 20 23 26 26 25 22
16 17 17 16 17 18 20 22 23 22 21 21 21 20 20 21 23 23 23 23 24 25 25 25 25 24 22 20 17 15 14 13 11 9 7 7 8 7 6 5 5 5 6 7 8 9 10 9 10 10 10 12 13 10 5 5 10 15 16 15 14 14 14 13 14 15 16 18 20 23 25 26 24 19
15 18 18 19 20 20 22 24 25 26 25 23 23 23 22 22 23 23 24 25 25 25 25 24 23 21 19 17 15 14 12 11 10 8 7 7 6 5 5 5 5 5 6 7 9 9 9 9 10 11 11 10 10 9 9 12 14 14 14 14 14 13 13 13 14 15 17 19 21 22 22 21 18 16
17 19 20 21 21 22 23 24 24 25 25 24 23 23 23 24 24 24 25 26 25 23 22 21 21 19 17 16 15 13 11 9 8 8 7 5 4 4 5 5 5 5 7 8 8 9 9 8 9 10 9 7 3 4 11 18 18 12 11 14 15 13 12 13 15 16 17 18 21 21 18 13 12 13
18 20 21 21 22 22 23 24 23 23 24 24 23 22 23 25 27 28 27 26 24 22 21 20 19 18 16 14 12 11 9 7 7 6 5 4 4 4 4 4 5 6 8 8 9 9 8 9 10 10 9 6 3 3 9 17 20 16 13 14 13 11 11 12 14 15 16 17 19 18 13 8 10 12
18 19 20 21 21 21 22 23 23 24 26 27 27 27 28 30 31 30 28 25 23 21 21 20 18 16 13 11 8 7 6 6 6 6 5 4 4 4 4 4 5 7 8 9 10 9 9 10 10 10 10 8 8 8 10 14 19 18 13 9 9 10 11 11 11 13 15 16 17 16 11 7 8 11
18 19 21 21 20 20 21 22 23 25 27 28 30 32 33 33 31 28 26 23 21 20 18 18 16 13 11 9 6 5 5 6 6 5 5 5 5 4 4 4 4 7 9 10 11 10 10 10 10 10 10 9 8 10 11 13 17 16 10 5 7 11 11 9 10 12 13 14 15 15 15 12 10 12
18 20 21 21 20 21 22 23 24 25 27 30 32 33 32 30 28 26 23 20 18 16 15 15 13 11 10 9 7 6 7 6 6 5 6 6 5 3 3 2 3 6 8 10 11 12 11 10 8 8 8 7 7 8 8 9 12 13 8 6 9 11 8 7 9 10 10 11 13 15 16 16 14 13
17 18 19 19 20 21 22 22 23 26 29 32 32 30 29 27 26 23 21 18 16 15 14 14 13 12 11 10 8 7 6 6 6 7 7 6 3 2 1 2 4 6 7 9 11 12 11 10 9 9 8 7 7 6 6 8 11 12 9 7 8 8 6 5 7 8 7 8 11 13 15 15 12 11
12 14 15 16 17 18 19 21 25 28 31 31 29 28 28 28 25 23 21 19 16 15 14 14 13 11 10 10 8 6 5 7 8 9 7 4 2 1 1 2 5 6 6 8 10 11 10 10 10 10 10 9 7 7 8 9 11 12 10 9 9 7 4 3 5 6 5 6 9 12 13 13 9 8
9 10 12 13 14 16 19 22 26 28 29 28 27 27 26 25 24 22 20 17 16 15 15 14 12 10 10 10 9 8 8 9 10 8 5 2 1 1 2 3 5 5 6 9 10 10 9 9 10 10 11 11 9 8 9 10 11 12 11 9 8 5 2 3 5 5 4 4 7 10 12 13 12 10
4 6 7 9 13 16 20 24 26 28 28 28 26 24 23 23 23 21 18 16 16 16 15 12 11 10 10 10 10 10 10 9 7 5 3 3 3 2 2 4 4 4 6 10 11 10 9 10 11 11 12 11 10 9 9 9 10 10 9 8 6 4 3 4 6 6 5 4 6 9 10 11 12 12
Wind_Direction
183 188 195 197 193 191 192 193 195 193 186 181 176 173 165 157 151 141 176 203 198 186 191 189 170 162 152 146 146 144 144 139 129 122 114 105 99 93 85 76 72 68 61 55 54 53 51 48 44 40 37 32 28 24 21 17 13 10 13 19 23 24 24 23 24 24 22 20 17 14 9 3 357 351
171 182 187 189 190 191 189 190 192 188 184 181 179 182 179 169 162 162 171 200 196 188 191 189 174 164 156 155 156 152 150 150 146 138 124 113 105 99 92 83 76 73 64 52 48 51 52 49 44 39 33 27 20 13 9 8 6 2 2 6 9 14 16 16 18 19 18 15 13 11 9 5 1 355
159 172 180 184 188 190 188 189 190 186 183 184 185 186 186 183 180 174 166 168 200 196 194 187 179 168 156 155 162 161 157 157 158 155 149 139 121 106 99 95 87 76 66 55 45 44 50 51 43 35 29 20 11 4 1 1 1 358 356 357 358 1 6 8 11 14 14 13 11 9 9 8 6 2
152 157 165 179 187 189 190 190 191 191 190 190 192 194 194 194 195 186 173 164 187 197 199 194 186 178 169 164 163 164 166 168 170 173 177 185 178 139 109 101 101 85 72 59 44 38 46 49 38 27 17 9 2 358 357 359 360 358 354 352 350 349 354 359 3 6 10 11 10 8 9 11 12 10
153 153 152 162 179 187 193 194 191 192 195 197 199 202 203 202 203 196 182 170 171 190 200 204 197 189 187 187 180 175 177 179 182 188 197 212 217 202 170 148 159 114 83 64 53 41 32 42 36 16 3 360 358 356 356 359 2 2 356 348 342 340 341 348 354 359 5 9 8 7 8 10 12 14
157 158 155 152 160 174 187 193 193 193 197 201 205 208 210 209 208 203 194 180 173 186 200 207 204 197 198 201 198 195 195 195 193 198 214 227 232 229 219 203 210 193 102 88 87 62 52 103 17 2 360 358 355 353 353 356 2 4 359 347 338 334 334 338 345 353 1 7 7 6 7 8 10 14
167 163 159 154 155 160 170 181 187 192 199 205 212 214 214 213 211 207 204 198 188 190 197 205 205 202 204 208 208 210 215 217 215 219 234 240 238 234 219 198 199 199 181 164 150 128 94 55 11 3 0 353 346 341 340 344 356 5 4 357 348 343 342 340 341 348 356 360 2 5 7 7 7 10
182 174 166 161 161 164 166 171 178 185 192 200 209 214 215 215 213 207 206 211 208 198 196 202 205 205 208 213 216 221 229 234 233 236 244 239 230 220 197 184 189 191 187 174 143 103 47 19 6 360 349 338 334 332 330 330 337 352 3 7 4 355 349 345 344 348 348 345 351 2 7 4 2 2
190 186 179 173 173 174 172 172 177 182 185 188 194 202 210 213 210 205 205 214 216 206 200 201 204 208 213 218 224 230 239 241 235 233 235 223 206 194 182 180 184 176 167 154 125 46 13 8 360 346 333 329 328 325 324 327 332 342 351 357 360 359 358 357 354 349 337 332 339 350 353 351 353 354
194 194 191 187 186 188 186 183 183 186 188 188 187 189 196 201 201 202 207 214 215 212 208 205 205 210 215 221 226 232 241 242 230 217 206 193 184 182 180 176 167 160 159 148 48 3 0 356 335 323 324 327 327 325 325 330 339 347 350 349 346 347 350 354 355 344 330 325 328 329 328 330 334 337
203 200 200 198 196 200 204 198 194 193 194 193 192 190 190 192 196 202 211 215 214 215 214 210 209 212 216 222 226 229 235 235 225 211 195 180 175 179 181 173 165 163 167 270 348 352 348 328 318 321 325 330 333 335 338 342 346 351 352 350 344 338 333 328 322 315 310 309 309 308 309 314 319 320
219 217 216 215 212 212 214 210 205 202 200 198 197 196 196 197 201 204 208 212 216 220 219 217 218 218 220 224 227 228 225 218 216 211 202 189 179 178 176 170 173 181 200 321 340 346 340 335 336 332 333 345 353 354 354 353 352 351 348 345 341 337 332 326 319 311 304 301 300 301 305 310 313 314
226 227 228 230 232 229 225 223 220 215 211 208 206 205 206 208 208 206 206 209 215 218 219 221 222 222 225 229 230 229 226 224 222 214 205 193 183 180 179 174 183 213 282 328 342 351 348 349 352 340 339 359 3 355 353 353 353 352 348 345 341 337 332 327 320 313 307 304 304 306 310 311 312 315
228 231 233 236 239 236 232 230 229 225 222 220 218 215 213 211 210 207 207 210 213 215 218 220 220 221 225 229 231 233 233 232 227 214 202 191 181 178 179 179 200 264 313 330 344 358 354 347 347 344 352 6 2 354 353 354 352 351 349 347 344 339 333 325 318 313 309 308 309 311 313 313 312 314
236 238 239 240 239 236 232 231 232 231 229 227 225 222 219 215 214 214 216 218 218 219 222 222 221 223 228 229 227 229 230 226 218 208 200 191 182 180 183 188 213 270 313 330 350 14 17 337 330 339 352 2 359 353 352 349 346 345 345 343 340 336 330 324 318 314 312 313 313 313 313 314 315 314
245 246 246 245 241 237 236 236 235 234 233 233 232 231 230 228 227 228 230 232 231 231 233 233 232 233 234 231 226 225 224 217 204 196 194 190 186 190 195 192 195 251 317 329 345 11 59 287 307 322 337 347 350 348 344 341 340 340 340 338 335 331 327 323 319 314 310 309 309 311 311 312 314 315
248 251 250 247 244 242 241 241 241 240 238 237 238 239 240 239 237 237 239 241 241 243 243 241 243 244 242 239 235 230 222 212 200 191 188 188 189 193 192 181 183 270 319 329 336 275 218 276 305 317 330 339 345 343 337 335 336 336 337 336 333 329 326 324 322 317 312 308 306 306 308 308 310 313
250 252 250 247 245 244 242 242 242 242 241 240 240 241 242 242 243 244 246 248 249 248 247 246 249 251 250 249 244 231 218 212 204 195 189 188 188 185 176 173 181 193 205 2 334 214 222 272 306 319 332 337 340 338 333 330 331 334 337 338 336 333 331 330 330 327 322 317 312 309 310 311 311 311
251 252 251 248 247 247 246 245 244 243 241 240 240 242 243 242 244 247 250 253 254 254 253 253 254 254 254 251 242 224 209 204 202 197 192 190 186 173 163 163 164 163 163 4 304 208 225 272 303 315 324 330 331 333 329 323 322 331 337 340 342 344 344 343 342 339 333 326 321 317 315 320 323 322
249 250 251 250 251 251 250 250 250 247 243 241 241 241 240 240 244 249 253 255 255 256 256 256 257 258 253 243 227 210 200 196 196 194 183 175 172 164 156 158 165 172 194 265 241 210 246 286 308 316 321 324 327 330 327 313 315 330 337 342 346 349 349 349 348 346 339 330 327 328 328 331 334 333
249 249 249 250 251 252 253 255 253 247 241 239 238 237 238 245 253 254 255 256 255 255 255 254 252 243 226 210 198 193 194 196 198 194 179 171 172 168 162 166 176 184 196 212 308 329 306 307 318 321 323 325 327 332 329 313 318 332 338 340 344 347 348 347 345 345 341 331 327 329 330 334 338 338
255 253 251 251 251 251 254 255 252 246 242 236 232 232 236 248 257 259 259 259 257 252 245 236 219 201 191 187 187 188 190 187 189 194 186 177 176 174 172 174 175 180 196 223 324 335 322 323 330 332 331 329 329 335 333 322 325 333 337 336 341 346 346 344 341 341 341 335 331 329 332 337 341 341
267 263 260 258 256 255 254 253 251 250 244 232 226 233 238 243 252 259 259 257 252 241 224 208 196 189 186 184 185 183 177 173 175 181 183 181 183 182 177 176 175 180 195 229 330 336 327 332 338 340 341 335 329 332 328 323 326 333 334 333 337 341 342 341 339 339 339 339 339 339 338 341 343 343
275 272 269 265 262 260 258 255 255 254 248 237 229 235 241 244 250 254 252 245 237 224 209 198 191 189 184 179 176 172 168 169 173 177 181 185 190 189 180 179 182 183 190 223 326 334 330 335 338 340 340 322 306 316 319 319 323 329 332 333 335 338 341 340 337 338 340 340 341 342 340 341 344 344
276 273 270 267 265 264 261 258 256 254 253 252 244 239 244 250 251 248 241 230 217 205 199 193 187 184 179 173 171 171 170 175 180 184 184 183 184 185 181 178 177 170 183 242 315 327 330 335 334 331 326 304 294 307 314 315 318 325 330 333 335 337 341 341 338 340 343 341 340 340 340 341 342 340
274 272 271 269 267 266 264 262 260 258 257 257 251 244 247 250 248 242 231 216 202 194 191 187 182 179 178 175 174 175 175 177 181 180 177 175 173 172 171 176 179 169 188 266 314 324 329 333 329 324 321 311 305 310 311 310 313 321 326 329 333 339 343 344 344 346 346 343 340 340 340 339 337 335
279 275 273 271 270 268 264 260 258 258 258 259 256 253 251 248 244 235 217 203 195 188 185 183 180 180 181 180 177 177 176 174 174 172 168 166 164 158 148 106 23 30 338 309 320 324 327 328 325 325 327 321 314 311 307 306 312 320 324 326 332 340 346 348 349 349 347 344 341 339 337 335 334 333
289 280 275 273 271 270 267 262 259 257 257 259 261 260 256 248 238 221 205 198 193 185 181 181 180 179 182 181 177 175 173 169 168 165 159 154 147 129 98 65 44 31 3 335 328 328 327 325 323 324 324 322 315 308 305 306 311 320 326 327 331 339 347 350 349 345 342 340 337 336 335 334 335 335
301 287 277 272 269 268 268 267 266 263 261 261 262 260 252 240 226 214 204 196 190 183 181 181 178 175 176 177 175 172 168 165 164 159 151 141 127 108 91 75 57 44 26 8 352 336 327 325 323 319 315 314 310 307 307 307 309 317 325 326 328 335 344 345 342 339 337 336 335 336 336 335 336 338
312 296 278 269 266 266 265 264 264 262 260 258 256 252 242 230 222 216 205 194 187 183 181 180 177 173 171 169 167 165 162 160 159 155 147 136 123 113 101 83 72 59 45 35 11 342 328 321 318 314 312 310 305 303 306 306 306 312 321 326 328 332 337 339 339 339 340 338 337 339 340 339 340 342
317 307 289 274 268 265 262 259 255 253 251 248 243 239 233 226 221 214 203 193 188 185 182 179 174 169 166 164 161 161 160 156 150 145 141 131 121 111 89 77 74 61 44 27 354 334 322 317 316 315 317 318 309 303 303 301 301 307 318 329 331 329 332 337 341 344 345 340 338 340 341 342 344 344
316 311 299 281 268 261 255 249 245 243 242 238 232 226 222 219 214 205 196 190 186 183 179 173 167 164 162 160 159 159 159 152 141 134 126 114 107 95 68 60 62 48 20 358 347 338 327 325 328 326 327 328 318 310 307 300 298 307 319 329 330 328 331 337 342 344 345 339 337 340 343 344 345 344
309 297 286 274 261 251 242 234 232 231 229 225 222 216 210 206 200 192 186 180 177 176 174 167 162 160 159 158 159 158 153 144 135 128 112 96 88 73 54 50 47 24 358 349 351 354 351 344 341 338 337 333 321 311 304 298 302 317 324 327 328 328 330 337 339 339 342 343 341 342 343 342 344 345
294 276 266 258 249 239 229 221 218 217 212 206 200 196 194 192 186 181 178 174 172 172 169 163 160 160 159 158 158 156 148 139 131 122 102 82 69 59 51 46 32 6 352 350 354 356 353 349 348 345 337 332 327 322 304 296 312 325 328 328 329 327 329 334 336 338 346 351 348 344 341 340 344 350
279 262 252 246 239 231 222 217 214 208 201 193 185 181 181 181 179 176 176 175 173 168 163 159 160 161 160 157 155 150 142 136 128 117 97 77 67 62 55 41 20 7 359 354 355 357 355 355 355 350 344 343 344 347 351 335 325 324 327 330 329 326 330 335 337 342 352 356 352 346 340 339 346 356
266 256 249 243 238 228 219 216 212 205 199 191 184 179 174 171 172 173 172 172 169 164 159 159 161 161 158 154 149 142 136 132 125 114 103 93 84 74 57 39 27 15 358 350 355 359 355 355 358 354 348 348 350 342 335 336 332 324 322 325 327 328 333 336 340 350 357 356 351 348 342 341 351 3
256 253 248 243 239 230 222 217 210 203 198 189 181 177 171 166 166 166 165 163 161 159 159 159 158 157 154 149 143 136 131 125 119 115 113 108 94 71 55 43 27 4 347 345 355 1 355 354 1 357 345 341 344 315 319 327 332 333 328 325 325 329 335 338 343 354 358 354 350 349 348 350 1 6
253 251 248 243 238 232 224 217 209 201 195 187 180 177 172 165 160 158 158 158 157 157 156 155 152 152 151 145 137 130 125 117 115 118 119 109 93 78 65 44 12 352 343 341 350 0 359 355 0 359 346 329 308 300 317 322 325 332 336 327 319 324 339 345 347 353 356 354 352 354 359 11 17 9
254 253 252 247 240 231 223 217 210 202 193 186 182 178 169 161 156 154 154 153 153 152 151 149 148 147 142 130 117 111 114 122 130 134 130 119 108 95 70 36 0 347 342 341 348 360 3 1 359 353 340 322 306 304 307 305 306 316 329 326 314 327 343 347 347 351 354 354 355 0 10 26 25 15
256 255 253 249 241 231 222 216 209 200 191 184 177 170 162 155 152 151 149 147 146 146 147 148 148 143 133 121 115 122 135 142 145 140 131 126 118 94 60 29 355 344 344 344 350 356 358 358 355 342 332 325 314 307 304 297 298 309 328 339 329 337 346 348 347 352 356 356 359 7 15 17 14 11
260 254 251 247 239 230 221 213 204 195 185 175 166 160 156 154 152 150 147 145 144 145 148 151 150 142 133 131 140 153 154 151 147 140 133 128 118 79 37 10 346 348 350 347 347 351 354 355 353 343 335 333 324 313 308 303 305 315 333 345 337 340 347 350 349 352 357 1 7 13 15 11 6 5
265 257 252 245 236 227 219 210 197 184 174 166 161 158 157 155 152 150 148 146 146 148 153 155 150 142 138 140 146 151 151 149 146 139 131 121 104 54 12 342 343 355 359 349 345 351 358 358 355 353 351 351 344 324 305 297 302 310 321 338 343 343 346 351 352 353 357 8 17 19 14 8 1 355
269 258 252 244 232 222 212 201 189 177 169 164 161 160 156 151 149 149 146 143 146 152 156 154 148 141 139 141 141 136 132 134 137 136 129 109 59 29 52 18 4 5 360 347 347 356 360 354 353 357 1 5 360 331 310 303 302 306 318 336 346 346 343 347 354 354 354 10 20 19 12 8 4 355
268 255 246 234 220 207 196 186 178 170 163 157 154 153 150 147 146 145 143 142 148 154 153 149 145 141 142 143 138 129 125 130 137 143 138 109 87 109 83 32 11 4 349 344 355 5 1 355 360 5 4 6 2 338 317 312 310 311 321 334 341 345 352 354 353 351 340 351 11 10 3 360 4 5
247 223 208 198 191 183 173 167 161 156 150 147 146 147 147 144 140 138 138 143 150 151 148 146 144 145 149 148 141 136 136 139 146 156 149 139 156 152 46 11 1 356 346 346 355 3 3 4 8 6 1 3 2 346 330 322 317 319 325 333 338 349 5 1 353 344 323 316 345 356 351 350 357 5